Regional Weather Roundup
Issued by NWS Albany, NY

Home | Current Version | Previous Version | Text Only | Print | Product List | Glossary On
Versions: 1 2 3 4 5 6 7 8 9 10 11 12 13 14 15 16 17 18 19 20 21 22 23 24 25 26 27 28 29 30 31 32 33 34 35 36 37 38 39 40 41 42 43 44 45 46 47 48 49 50
000
ASUS41 KALY 221710
RWRALY

NEW YORK STATE HOURLY WEATHER ROUNDUP
NATIONAL WEATHER SERVICE ALBANY NY
100 PM EDT FRI MAY 22 2015

NOTE: "FAIR" INDICATES FEW OR NO CLOUDS BELOW 12,000 FEET WITH NO
SIGNIFICANT WEATHER AND/OR NO OBSTRUCTIONS TO VISIBILITY.

NYZ032-033-038>043-046>054-057>066-NYZ062>081-221800-
EAST


CITY           SKY/WX    TMP DP  RH WIND       PRES   REMARKS
ALBANY         PTSUNNY   66  38  35 W17G25    29.90S
GLENS FALLS    PTSUNNY   63  34  33 NW9       29.88R
POUGHKEEPSIE   MOSUNNY   72  39  30 W15G23    29.88S
NEWBURGH       PTSUNNY   68  43  40 NW21G32   29.92S
MONTGOMERY     PTSUNNY   68  41  37 NW9G20    29.91S
WHITE PLAINS   MOSUNNY   69  41  36 W9G22     29.90F
ISLIP          MOSUNNY   73  39  29 NW18G24   29.89S
NEW YORK CITY  PTSUNNY   73  37  27 W17G25    29.91S
CENTRAL PARK   MOSUNNY   71  39  31 VRB6      29.93F
$$

NYZ005>009-017-018-044>046-055-056-221800-
CENTRAL


CITY           SKY/WX    TMP DP  RH WIND       PRES   REMARKS
FULTON         MOSUNNY   56  37  49 W12       30.03R
SYRACUSE       MOSUNNY   59  32  36 NW15      30.01R
ROME           MOSUNNY   59  31  34 NW21G29   29.98R
ELMIRA         MOSUNNY   63  36  36 NW14G24   29.98S
BINGHAMTON     MOSUNNY   58  33  39 NW12G30   29.98S
MONTICELLO     CLOUDY    61  37  41 W17G26    29.95S
$$

NYZ026>034-041>043-221800-
NORTH


CITY           SKY/WX    TMP DP  RH WIND       PRES   REMARKS
WATERTOWN      PTSUNNY   56  33  42 W13G21    30.00R
FORT DRUM      NOT AVBL
MASSENA        MOSUNNY   56  30  37 W14G25    29.98R
SARANAC LAKE   PTSUNNY   53  22  29 N12G20    29.91R
PLATTSBURGH    MOSUNNY   59  25  27 NW10G22   29.91S
$$

NYZ001>004-010>016-019>021-221800-
WEST


CITY           SKY/WX    TMP DP  RH WIND       PRES   REMARKS
NIAGARA FALLS  MOSUNNY   57  28  33 NW9       30.07R
BUFFALO        PTSUNNY   57  39  51 SW12      30.06R
DUNKIRK        SUNNY     53  36  52 W15       30.11R
JAMESTOWN      SUNNY     54  27  35 W18G26    30.09R
WELLSVILLE     SUNNY     59  23  25 W20G30    30.03R
ROCHESTER      MOSUNNY   58  37  45 N12G21    30.05R
PENN YAN       MOSUNNY   60  37  42 NW8       30.01S
$$

             KEY
       WCI = WIND CHILL INDEX
       VSB = VISIBILITY
       HX  = HEAT INDEX
$$


USA.gov is the U.S. government's official web portal to all federal, state and local government web resources and services.